Starlink 30993

operational
NORAD ID: 58489 Int'l Des: 2023-186 Owner: SPXS Country: US Constellation: starlink
LEOCIRCULAR

关于 Starlink 30993

正在加载描述...

实时位置

正在加载3D地球...

即将过境

高度历史

Altitude vs Time

uPlot chart will show altitude changes over time

两行轨道根数

1 58489U 23186S 25304.72803970 -.00003926 00000-0 -27580-3 0 9991
2 58489 43.0026 48.0753 0001442 269.0160 91.0517 15.02526406106442
Epoch: Oct 31, 2025 • Age: 26 hours

当前状态

高度 562.6 km
速度 7.59 km/s
星下点 40.21°N, 135.55°E
发射日期 Dec 3, 2023
运行时间 1.9 years
类型 internet

技术详情

分类 Payload
质量 730.00 kg
干质量 700.00 kg
总质量 730.00 kg
长度 0.30 m
直径 4.10 m
跨度 29.00 m
形状 Box + pan
制造商 SPXS
平台类型 Starlink V2M
阶段状态 In Orbit
所有者/国家 SPXS/US

大型星座

Loading constellations...